Theta_e
326 325 325 326 326 325 325 325 325 325 325 325 324 323 322 321 321 321 320 320 319 318 318 321 322 323 316 310 313 334 354 353 341 328 322 328 330 332 326 328 330 326 328 330 332 331 329
325 324 325 325 325 326 325 325 325 324 324 324 323 323 322 321 321 321 320 319 318 317 318 321 322 323 313 308 325 336 333 320 318 316 313 327 328 332 329 329 328 330 329 329 330 329 329
325 325 323 324 325 325 325 324 324 324 324 323 322 322 321 321 321 321 320 319 318 318 319 322 323 321 309 312 328 325 321 315 315 316 313 329 328 320 332 328 332 330 324 326 327 327 324
325 324 324 324 324 324 324 323 324 323 323 322 321 321 321 320 320 320 319 317 318 320 321 321 322 317 305 317 324 316 315 311 317 320 326 326 323 319 330 331 329 325 322 317 325 327 327
324 324 324 324 323 323 323 323 323 323 322 321 321 320 320 319 319 318 317 317 320 321 321 323 317 313 309 321 316 319 319 311 314 318 322 324 317 311 313 314 320 322 312 317 320 328 326
324 324 324 324 323 323 322 322 322 322 321 321 320 319 319 318 318 317 316 316 323 322 323 324 320 311 313 310 311 319 321 320 317 318 313 311 311 310 309 308 309 313 313 319 318 324 325
324 324 324 323 323 322 322 322 322 321 321 320 320 319 318 318 316 316 315 316 312 309 313 307 308 309 311 316 316 314 321 320 314 312 307 307 307 307 307 310 312 315 315 316 321 326 323
324 323 323 323 322 322 321 321 321 321 320 320 319 319 318 316 315 315 312 312 311 310 307 309 309 311 313 316 308 312 318 312 309 307 305 306 306 306 306 307 306 304 304 305 320 325 324
323 323 322 322 322 321 321 320 320 320 320 319 319 318 317 316 315 313 311 312 314 312 306 306 308 309 311 314 309 311 314 309 307 304 304 304 304 305 305 304 302 303 304 311 315 322 323
322 322 321 322 322 321 320 320 320 320 319 319 318 318 316 314 311 313 311 313 314 311 304 303 306 309 310 311 307 313 314 311 306 304 304 304 305 304 303 303 305 304 306 309 320 318 311
322 321 320 321 321 320 320 319 319 319 318 318 318 317 315 314 315 311 312 314 311 309 294 305 307 311 308 308 307 309 313 311 305 304 304 302 301 302 302 303 306 305 307 310 320 317 314
321 320 318 318 319 319 318 317 318 318 317 317 316 316 314 313 313 315 315 311 310 301 293 302 304 303 304 305 305 308 309 310 308 303 303 303 304 304 304 305 306 310 313 314 317 315 305
320 319 318 318 317 316 316 316 316 316 317 316 315 313 313 317 311 316 313 312 299 295 302 299 300 301 302 302 303 305 305 304 302 298 299 301 302 304 305 303 306 307 308 303 302 304 301
318 317 317 317 316 315 315 315 316 316 316 315 313 312 314 317 318 316 312 306 294 298 299 305 300 299 299 302 302 302 303 302 301 300 298 297 296 302 305 305 303 306 306 302 297 299 303
316 316 315 315 314 314 314 315 315 315 315 314 312 317 317 318 317 317 310 297 297 300 304 303 300 298 298 300 301 300 301 302 304 303 298 297 296 303 304 307 307 303 303 308 302 298 301
315 314 314 313 313 313 313 314 314 315 315 313 315 314 314 317 317 312 307 296 300 303 304 303 298 299 298 299 299 300 299 303 302 303 305 301 296 301 303 305 304 306 307 301 302 296 295
313 313 313 313 312 312 312 312 313 314 314 312 317 315 314 314 311 310 299 299 300 305 306 304 300 300 299 298 300 299 300 302 302 301 303 302 300 299 301 302 302 302 302 301 303 301 297
312 312 312 312 312 312 312 312 312 312 312 314 316 307 316 314 306 301 301 301 300 304 308 307 305 305 301 300 299 299 300 302 302 302 299 303 301 297 299 301 302 301 303 305 300 298 299
312 312 312 312 311 311 311 311 312 311 312 312 312 311 320 313 301 302 302 303 305 307 307 306 303 303 302 301 299 300 300 302 301 302 302 302 299 295 297 300 302 301 301 300 300 302 300
311 311 311 311 311 311 311 311 310 311 312 315 311 306 312 311 307 303 302 304 303 309 308 308 305 305 302 300 301 300 300 303 303 303 315 307 300 299 295 299 303 300 301 301 301 299 300
310 311 311 311 311 311 311 311 311 311 312 314 312 308 307 306 307 308 307 305 304 305 309 309 304 304 302 299 300 299 302 303 304 312 304 305 300 300 301 299 302 302 302 301 300 302 298
311 311 311 311 311 311 311 312 311 310 310 313 310 309 312 309 307 306 304 305 305 306 307 306 305 305 305 302 301 300 301 302 304 308 303 301 301 300 299 300 301 300 302 303 304 301 302
312 313 314 314 314 314 313 312 311 310 309 311 315 315 311 304 306 304 305 306 305 306 308 307 307 306 303 305 304 306 305 305 303 304 303 302 301 299 296 300 299 296 301 305 309 311 309
314 314 315 315 316 316 315 314 312 310 309 310 314 314 308 301 304 304 307 307 306 306 305 308 309 306 308 309 309 304 303 303 302 303 304 301 302 300 297 298 290 302 312 308 309 315 317
314 314 315 315 316 316 316 315 314 311 310 308 314 312 308 300 303 304 305 305 307 308 306 307 310 313 311 308 303 301 300 300 301 302 302 303 302 298 295 295 298 307 313 313 310 311 319
314 314 314 315 315 316 316 316 315 313 310 310 309 314 310 302 301 306 304 307 303 304 305 307 311 312 309 304 298 295 295 298 296 297 301 302 302 300 297 293 291 301 315 319 318 304 322
313 313 313 314 314 314 315 315 315 315 310 310 309 315 310 302 306 308 304 304 307 305 302 306 307 307 304 300 297 296 296 301 295 295 296 298 298 296 297 295 298 304 317 317 302 303 323
313 313 313 314 314 315 315 316 315 316 314 309 308 312 309 305 306 310 311 307 307 306 302 307 305 303 302 298 300 299 297 301 300 302 298 297 296 295 295 295 293 311 312 308 312 319 326
313 313 313 313 314 315 316 316 316 315 316 311 305 314 315 306 306 310 311 314 313 313 307 307 305 303 306 300 300 300 298 298 301 297 304 298 300 299 300 300 306 312 313 318 319 324 328
Wind_Speed
11 11 12 13 13 12 13 13 14 14 15 15 13 15 17 18 17 16 15 14 14 13 13 11 8 8 3 2 3 4 13 11 7 2 3 3 2 2 3 3 2 2 4 1 2 3 10
18 16 13 12 12 13 13 14 13 14 15 14 15 15 16 18 17 16 16 15 14 12 12 10 7 5 3 4 1 8 10 7 5 4 2 3 3 1 4 2 1 2 6 6 1 12 13
23 22 22 19 16 14 13 14 15 15 14 14 13 14 18 17 17 16 18 16 14 11 10 7 5 3 1 5 3 8 8 4 3 3 3 1 4 2 3 4 3 3 8 9 9 8 4
20 19 20 20 19 18 15 15 13 14 15 15 14 15 15 18 16 17 18 16 14 11 8 4 2 2 2 2 7 7 3 3 2 3 1 1 2 1 3 3 2 6 4 2 4 2 6
17 17 17 17 18 18 16 15 15 15 15 17 16 16 19 19 19 17 17 15 11 3 3 4 2 2 4 4 3 4 4 5 6 4 2 2 1 2 2 2 5 2 2 4 4 2 6
15 15 16 16 17 16 16 16 16 16 16 18 17 20 18 20 20 18 15 5 7 6 2 3 2 3 2 2 3 5 4 6 3 8 4 2 2 4 3 0 6 6 4 4 4 8 6
14 15 15 15 15 15 16 16 16 17 18 18 19 23 23 20 20 17 6 3 1 2 1 2 1 1 1 1 1 3 4 5 3 3 5 2 5 7 4 3 4 3 2 4 3 2 3
14 14 14 14 13 13 13 15 16 17 18 18 20 21 21 23 21 8 2 3 3 3 3 1 3 5 4 2 3 3 6 3 2 8 4 3 8 6 3 5 2 2 1 1 1 1 4
12 13 13 13 13 12 13 14 14 16 17 18 19 19 20 23 20 2 3 4 3 5 1 2 3 3 2 6 4 9 7 4 4 6 4 7 2 6 6 5 5 4 3 1 3 3 2
12 13 13 14 14 14 14 15 16 18 18 19 19 19 18 24 3 3 0 2 6 5 1 2 3 3 4 3 3 2 3 3 2 7 6 4 1 3 3 5 6 7 8 6 7 7 3
12 14 15 16 15 15 16 16 17 18 20 21 20 19 15 8 4 3 2 6 3 4 2 4 4 2 1 3 5 3 0 3 6 6 6 3 4 6 8 5 9 1 3 8 9 8 3
13 15 17 17 17 17 17 18 19 21 23 22 21 19 11 2 2 3 5 1 3 3 3 5 4 5 6 1 2 3 3 4 3 4 1 3 0 3 3 3 10 10 8 6 4 5 6
14 15 15 16 18 20 21 22 22 24 26 26 26 21 3 1 2 6 6 1 2 4 1 5 4 4 6 5 4 5 9 9 6 6 7 2 5 3 4 4 4 7 9 6 6 6 7
16 17 15 16 18 21 21 23 23 26 27 27 29 10 4 3 3 7 1 2 3 0 3 3 3 4 7 8 4 4 6 10 3 3 3 8 6 9 8 12 7 9 12 11 12 10 8
16 17 17 18 19 20 20 23 24 26 27 27 21 2 0 3 2 2 1 3 3 3 1 1 3 4 5 5 4 5 8 9 10 11 6 6 5 2 5 3 7 7 8 3 6 2 6
17 17 18 18 19 20 21 22 24 25 26 25 6 4 3 5 4 1 1 3 3 3 2 0 5 4 10 8 9 9 10 5 8 13 7 4 4 2 2 4 4 4 8 7 3 11 15
17 17 18 18 19 19 20 21 22 22 25 21 3 3 4 3 3 2 3 4 4 5 2 3 3 3 4 6 9 7 7 4 6 8 7 7 5 3 3 5 9 5 5 2 2 3 12
17 17 17 17 17 18 18 18 18 18 24 7 4 4 2 2 2 0 4 5 1 2 3 3 2 4 5 6 8 8 11 4 6 11 11 8 5 11 13 2 4 2 5 10 9 8 1
18 18 19 18 18 18 18 18 17 15 13 4 4 4 2 3 5 4 2 3 3 3 3 1 3 5 3 3 4 7 6 3 8 12 12 11 6 7 5 5 4 5 5 3 3 1 9
18 19 19 19 19 19 18 18 17 16 14 3 3 4 1 2 3 2 3 4 4 3 3 3 3 1 2 4 6 2 6 2 7 8 3 10 6 10 11 7 4 6 9 7 9 11 12
18 18 18 18 17 16 16 16 14 15 14 3 1 1 2 1 2 4 3 1 4 4 3 3 4 4 1 3 3 6 5 3 3 8 5 8 9 9 9 6 8 8 13 12 11 8 9
20 20 20 19 19 18 16 12 11 13 13 2 3 2 1 3 4 2 2 3 10 10 6 9 8 3 2 4 2 5 4 4 6 7 7 5 7 6 8 6 10 9 11 11 8 5 8
19 19 18 18 17 15 12 10 9 8 5 2 1 2 2 3 2 3 3 4 3 1 1 2 3 2 5 7 3 9 8 9 5 3 10 7 8 6 15 7 6 9 13 13 6 7 4
19 19 19 20 19 17 16 12 8 7 4 3 2 1 3 5 7 8 6 3 3 2 3 2 6 3 3 8 11 4 7 7 8 10 7 7 6 5 11 8 16 2 2 9 11 4 8
18 18 18 19 18 18 17 15 12 10 9 3 3 2 3 5 10 9 9 10 8 5 5 8 12 10 7 8 5 5 5 4 6 5 10 7 8 6 8 12 4 3 5 9 12 8 8
18 18 18 19 19 18 17 15 14 13 11 3 3 4 3 1 6 11 10 11 7 9 7 8 7 4 4 4 4 6 11 8 7 6 2 6 2 9 5 14 16 8 10 8 6 7 12
18 18 19 20 21 21 20 17 14 14 14 5 3 9 4 4 3 3 3 5 1 2 3 3 3 1 1 5 6 8 13 5 7 8 6 6 4 13 9 8 3 1 7 7 9 3 17
17 17 19 21 22 22 20 18 15 14 16 9 4 8 4 3 3 4 3 4 3 4 3 2 3 3 2 4 5 5 6 10 10 9 6 7 8 6 4 8 12 6 7 6 2 3 16
17 18 18 20 22 21 20 16 11 12 13 14 3 5 4 5 3 2 5 10 6 4 1 2 3 1 0 3 1 0 4 3 7 13 5 11 5 4 6 6 4 1 3 5 5 4 12
Wind_Direction
14 10 359 349 349 350 345 344 341 341 340 335 335 341 343 341 338 336 333 328 325 320 315 317 315 314 259 181 70 68 113 119 132 165 184 176 176 95 69 133 164 27 18 66 295 166 146
7 10 8 359 348 342 350 347 346 344 339 336 338 337 336 337 334 333 330 325 320 313 305 311 310 306 252 109 52 126 120 130 150 171 194 216 340 27 93 166 268 128 69 39 6 140 146
357 358 0 357 357 358 351 349 344 336 335 340 340 332 336 334 331 327 327 321 315 305 296 299 295 277 276 95 105 129 138 177 151 169 168 226 343 295 179 151 291 127 81 67 78 129 116
351 350 350 351 352 354 354 349 342 337 340 343 338 334 331 333 331 326 324 318 306 293 282 270 266 266 106 88 129 135 146 130 142 208 251 265 12 232 270 112 17 127 119 271 88 29 153
346 345 348 348 348 347 346 343 339 341 338 342 339 335 334 333 332 327 322 314 302 236 202 189 205 314 118 137 177 165 172 157 149 163 236 289 190 67 147 112 133 92 80 199 155 131 160
347 347 347 347 345 342 341 341 341 339 338 336 338 339 338 334 333 330 321 294 96 122 166 214 258 193 140 128 139 147 180 160 152 139 145 169 86 169 125 135 199 162 172 220 175 177 176
349 349 349 346 341 340 339 340 340 339 339 338 338 338 338 337 336 329 320 162 218 157 178 353 71 321 232 308 182 171 174 156 121 109 162 59 203 209 156 151 74 91 170 206 164 168 217
345 344 342 341 338 340 340 339 335 337 338 337 337 330 334 337 332 327 281 92 100 8 319 203 245 274 252 275 126 143 163 155 139 160 138 146 231 147 118 160 139 87 163 349 256 131 231
345 344 342 342 344 343 344 339 335 335 336 334 331 332 331 334 325 223 352 121 11 178 264 308 220 231 166 179 152 168 177 131 129 142 158 205 126 121 190 173 172 190 211 198 303 136 206
347 348 346 347 346 344 343 339 337 336 334 332 330 330 329 330 290 336 123 8 311 196 15 150 199 141 148 180 112 174 160 128 109 168 154 234 130 219 169 208 199 238 206 192 181 182 263
348 350 352 351 349 347 343 342 336 336 336 331 328 328 325 332 315 213 64 328 144 217 174 136 140 98 132 176 127 152 106 101 158 152 187 176 175 193 218 222 195 248 144 198 186 191 235
353 354 353 354 353 351 346 344 342 339 336 331 328 324 321 156 231 283 332 311 216 245 195 160 139 152 155 119 104 105 145 75 86 129 184 239 242 237 225 190 194 143 109 83 107 216 237
351 353 352 350 352 351 351 349 345 342 337 333 330 329 244 182 39 334 307 163 232 234 32 165 171 174 181 163 184 166 175 185 192 185 217 223 227 222 198 193 150 199 190 206 209 205 256
352 352 350 350 350 350 349 349 347 343 338 333 330 327 184 245 311 342 240 124 234 315 197 94 122 124 189 165 186 151 163 196 168 133 152 212 211 194 171 216 206 195 222 223 229 226 230
348 350 350 351 351 350 348 348 348 343 336 335 321 336 262 331 268 233 140 198 240 203 354 138 122 182 188 198 214 174 197 210 197 187 214 183 238 231 220 184 205 156 209 270 223 85 251
350 351 352 352 353 351 349 349 347 344 335 336 332 319 6 359 145 165 143 260 252 234 331 219 232 219 192 179 188 197 185 184 189 195 203 179 254 191 147 158 76 243 139 184 219 223 240
351 352 352 353 352 351 350 350 347 342 335 327 337 329 19 356 272 98 218 235 257 237 257 232 224 213 222 189 205 195 195 190 207 166 189 165 233 172 242 199 194 157 187 84 248 271 245
350 350 350 349 350 349 349 351 344 343 337 19 347 302 36 283 201 311 194 193 230 252 197 241 242 238 224 192 183 209 211 244 170 148 175 194 227 236 246 74 298 304 246 215 231 200 244
347 347 346 345 345 346 348 349 344 345 10 327 343 284 10 281 225 212 234 230 238 218 224 199 253 225 188 232 221 215 198 185 165 172 177 173 214 223 195 168 163 212 182 181 115 156 215
343 341 341 341 341 343 344 346 347 342 349 341 304 301 274 56 355 252 194 226 233 222 232 198 272 231 205 227 220 238 222 232 177 208 175 172 173 216 229 239 152 183 188 190 217 234 231
341 338 337 336 335 334 336 337 339 333 341 323 233 317 357 318 110 331 275 247 194 193 221 218 163 89 46 268 214 219 224 213 189 164 147 199 224 206 230 229 209 197 183 177 197 229 239
337 335 332 329 328 327 328 327 329 325 335 249 286 285 158 288 284 234 217 240 241 233 232 252 249 310 220 229 294 334 334 225 221 173 187 192 225 197 231 199 213 214 196 188 207 184 232
329 324 318 315 310 305 300 304 309 310 340 274 234 242 259 245 217 224 234 240 244 247 204 355 109 273 228 241 299 291 262 275 275 253 198 185 180 193 233 210 201 235 209 197 189 198 208
322 319 317 315 310 302 294 281 263 263 241 322 290 297 244 255 238 241 260 267 233 260 299 290 319 292 25 327 291 252 235 262 228 214 213 170 187 208 233 167 226 172 244 234 216 193 197
319 317 315 315 315 310 298 279 250 224 234 223 301 238 253 258 250 256 251 259 268 268 251 262 279 260 326 316 284 254 208 212 205 214 198 223 186 201 217 216 245 154 173 175 188 197 211
321 321 322 319 315 313 308 295 260 221 210 195 243 269 250 289 226 255 254 251 242 256 255 257 261 291 222 240 224 235 233 249 200 178 167 174 258 222 169 222 232 214 181 176 152 226 187
333 329 327 326 322 316 311 300 275 235 192 179 233 209 259 240 232 273 260 245 168 190 250 268 300 256 212 199 207 231 229 200 211 215 178 175 182 211 195 225 210 183 148 151 203 254 177
335 333 334 332 328 322 313 300 280 250 197 167 229 228 228 243 271 213 237 222 195 209 216 127 243 163 247 214 189 209 236 218 234 212 180 194 172 181 148 229 225 152 126 205 333 296 191
332 331 331 331 335 335 334 322 276 246 207 172 221 204 200 250 325 318 285 269 241 266 292 271 337 75 333 287 253 134 247 218 226 232 214 237 221 242 222 229 139 78 337 340 275 218 184